Pagina principală
METAR-TAF:

METAR-TAF

Aeroporturi :

Reyes, Bolivia

Latitudine: 14-19S, longitudine: 067-23W, elevație: 140 m

Observații meteo curente

Raportul a fost făcut în urmă cu 10 ore și 40 de minute, la 22:00 UTC
Vânt 4 kt de la Nord/Nord-vest
Temperatură 28°C
Umiditate 79%
Presiune 1008 hPa
Vizibilitate de 10 km sau mai mult
Nori puțini la o înălțime de 2000 picior
Nori fragmentați la o înălțime de 7000 picior

METAR: SLRY 132200Z 34004KT 9999 FEW020 BKN070 28/24 Q1008

Ora: 04:40 (08:40 UTC)


TAF: lipsă

Observații și prognoze meteo pentru peste 4.000 de aeroporturi (rapoarte METAR și TAF).

Stațiile disponibile sunt reprezentate pe hartă prin puncte galbene și roșii.

Țineți indicatorul mouse-ului pe punctul dorit pentru a vedea denumirea stației.

Apoi, faceți clic pentru a vedea observațiile și prognozele meteorologice.

Pentru a schimba harta: Pentru mărire, faceți clic pe butoanele verzi cu cruce neagră; pentru micșorare, pe butonul verde cu o liniuță; pentru hărți învecinate, pe săgețile verzi.


METAR-TAF: